Location: ???? ????
(41.4149°N, 22.8816°E)
Time: 14:57:10
(UTC+00:00)

CSL-04 DEB - Pass Details

Date: 14 July 2020
Orbit: 545 x 629 km, 98.7° (Epoch: 04 August)

Event Time Altitude Azimuth Distance (km) Brightness Sun altitude
Exits shadow 01:47:35 - 168° (SSE) 2,615 7.5 -12.7°
Reaches altitude 10° 01:49:16 10° 170° (S) 1,917 6.8 -12.5°
Maximum altitude 01:53:25 77° 256° (WSW) 600 4.3 -11.9°
Drops below altitude 10° 01:57:29 10° 343° (NNW) 1,881 7.4 -11.4°
Sets 01:59:37 0° 345° (NNW) 2,771 8.3 -11.1°
